TimeAST,TemperatureF,Dew PointF,Humidity,Sea Level PressureIn,VisibilityMPH,Wind Direction,Wind SpeedMPH,Gust SpeedMPH,PrecipitationIn,Events,Conditions,WindDirDegrees,DateUTC
3:00 AM,82.4,75.2,79,29.86,-9999.0,East,12.7,-,N/A,,Unknown,90,2012-09-12 07:00:00
8:00 AM,85,78,75,29.92,22,East,13.8,,,,Partly Cloudy,90,2012-09-12 12:00:00
8:00 AM,84.2,78.8,84,29.89,6.2,East,13.8,-,N/A,,Scattered Clouds,90,2012-09-12 12:00:00
9:00 AM,86.0,77.0,74,29.92,6.2,East,17.3,-,N/A,,Scattered Clouds,100,2012-09-12 13:00:00
10:00 AM,86.0,77.0,74,29.92,6.2,East,17.3,-,N/A,,Scattered Clouds,100,2012-09-12 14:00:00
11:00 AM,86,76,66,29.93,22,East,15.0,,,,Partly Cloudy,90,2012-09-12 15:00:00
11:00 AM,86.0,75.2,70,29.92,6.2,East,15.0,-,N/A,,Scattered Clouds,90,2012-09-12 15:00:00
12:00 PM,87.8,75.2,66,29.89,6.2,East,17.3,-,N/A,,Scattered Clouds,100,2012-09-12 16:00:00
1:00 PM,87.8,75.2,66,29.86,6.2,East,15.0,-,N/A,,Scattered Clouds,90,2012-09-12 17:00:00
2:00 PM,88,75,58,29.85,22,East,16.1,,,,Partly Cloudy,90,2012-09-12 18:00:00
2:00 PM,87.8,75.2,66,29.83,6.2,East,15.0,-,N/A,,Mostly Cloudy,80,2012-09-12 18:00:00
3:00 PM,87.8,75.2,66,29.80,-9999.0,East,15.0,-,N/A,,Unknown,100,2012-09-12 19:00:00
4:00 PM,84.2,77.0,79,29.80,-9999.0,East,13.8,-,N/A,,Unknown,90,2012-09-12 20:00:00
5:00 PM,85,76,67,,6,East,13.8,,,,Clear,80,2012-09-12 21:00:00
5:00 PM,86.0,77.0,74,29.80,6.2,East,13.8,-,N/A,,Mostly Cloudy,80,2012-09-12 21:00:00
6:00 PM,86.0,77.0,74,29.80,-9999.0,East,13.8,-,N/A,,Unknown,80,2012-09-12 22:00:00
7:00 PM,84.2,75.2,74,29.83,-9999.0,East,11.5,-,N/A,,Unknown,80,2012-09-12 23:00:00
8:00 PM,82.4,75.2,79,29.83,6.2,East,10.4,-,N/A,,Scattered Clouds,90,2012-09-13 00:00:00
9:00 PM,82.4,77.0,84,29.86,-9999.0,North,-9999.0,-,N/A,,Unknown,0,2012-09-13 01:00:00
10:00 PM,82.4,75.2,79,29.89,-9999.0,East,12.7,-,N/A,,Unknown,80,2012-09-13 02:00:00
11:00 PM,83,75,71,,22,East,9.2,,,,Clear,90,2012-09-13 03:00:00
11:00 PM,82.4,75.2,79,29.92,-9999.0,East,10.4,-,N/A,,Unknown,90,2012-09-13 03:00:00